Simultaneous Nadir Overpasses (SNOs) Predictions

Prediction of SNOs between GOES-16 and METOP-A Satellite Orbit:

Table of predicted SNOs for the next 14.0 days since TLE Epoch: 12/19/2020
Index Date Time (GOES-16) GOES-16 Lat,Lon METOP-A Lat,Lon Distance(km) Time Diff (sec)
1 12/20/2020 13:36:45 -0.02, -75.18 0.52, -77.64 279.52 80
2 12/21/2020 13:13:25 -0.02, -75.19 -0.57, -72.66 288.41 80
3 12/23/2020 01:35:06 0.02, -75.18 -0.43, -77.30 240.81 80
4 12/24/2020 01:11:47 0.02, -75.19 0.66, -72.32 327.42 80
5 12/25/2020 13:30:39 -0.02, -75.23 0.33, -76.92 191.60 80
6 12/26/2020 13:12:40 -0.01, -75.25 -0.77, -71.94 377.01 80
7 12/28/2020 01:31:40 0.01, -75.24 -0.29, -76.57 151.39 80
8 12/29/2020 01:08:21 0.01, -75.26 0.80, -71.59 417.30 80
9 12/30/2020 13:27:13 -0.00, -75.31 0.19, -76.20 101.24 80
10 12/31/2020 13:09:13 -0.00, -75.33 -0.91, -71.22 467.62 80
